When you browse on this site, cookies collect data to enhance your experience and personalize the content and advertising you see.
Visit our Privacy Policy to learn more. By continuing to use the site, you agree to this use of cookies and data.
  • In Slovakia
  • List of Countries
  • For 7 days
  • Water Temperature
  • Weather Map
  • Weather Widgets
  • user-avatar
    Login

    Hourly Weather Primorsko

    Today, 25 August, Sunday

    Time Temperature Precipitation Wind Pressure Humidity
    00:00 +23°C° 0 mm 2 mps 762 mmHg 92%
    01:00 +23°C° 0 mm 2 mps 762 mmHg 91%
    02:00 +23°C° 0 mm 2 mps 762 mmHg 92%
    03:00 +21°C° 0 mm 2 mps 762 mmHg 90%
    04:00 +21°C° 0 mm 3 mps 762 mmHg 88%
    05:00 +21°C° 0 mm 3 mps 761 mmHg 87%
    06:00 +24°C° 0 mm 3 mps 762 mmHg 76%
    07:00 +26°C° 0 mm 3 mps 762 mmHg 66%
    08:00 +28°C° 0 mm 3 mps 762 mmHg 56%
    09:00 +29°C° 0 mm 4 mps 762 mmHg 53%
    10:00 +32°C° 0 mm 4 mps 761 mmHg 51%
    11:00 +33°C° 0 mm 5 mps 761 mmHg 48%
    12:00 +34°C° 0 mm 5 mps 761 mmHg 47%
    13:00 +34°C° 0 mm 5 mps 761 mmHg 47%
    14:00 +35°C° 0 mm 5 mps 761 mmHg 45%
    15:00 +34°C° 0 mm 5 mps 761 mmHg 48%
    16:00 +33°C° 0 mm 5 mps 761 mmHg 52%
    17:00 +32°C° 0 mm 5 mps 761 mmHg 55%
    18:00 +29°C° 0 mm 4 mps 761 mmHg 67%
    19:00 +27°C° 0 mm 4 mps 761 mmHg 78%
    20:00 +24°C° 0 mm 3 mps 762 mmHg 90%
    21:00 +24°C° 0 mm 3 mps 762 mmHg 92%
    22:00 +24°C° 0 mm 3 mps 762 mmHg 93%
    23:00 +24°C° 0 mm 3 mps 762 mmHg 95%

    Tomorrow, 26 August, Monday

    Time Temperature Precipitation Wind Pressure Humidity
    00:00 +24°C° 0 mm 3 mps 762 mmHg 95%
    01:00 +24°C° 0 mm 3 mps 762 mmHg 95%
    02:00 +24°C° 0 mm 3 mps 762 mmHg 95%
    03:00 +24°C° 0 mm 3 mps 762 mmHg 95%
    04:00 +23°C° 0 mm 4 mps 762 mmHg 94%
    05:00 +23°C° 0 mm 4 mps 762 mmHg 94%
    06:00 +25°C° 0 mm 4 mps 762 mmHg 88%
    07:00 +26°C° 0 mm 4 mps 762 mmHg 81%
    08:00 +28°C° 0 mm 4 mps 762 mmHg 74%
    09:00 +29°C° 0 mm 5 mps 762 mmHg 64%
    10:00 +32°C° 0 mm 5 mps 762 mmHg 54%
    11:00 +34°C° 0 mm 6 mps 762 mmHg 44%
    12:00 +34°C° 0 mm 6 mps 762 mmHg 44%
    13:00 +34°C° 0 mm 7 mps 762 mmHg 45%
    14:00 +34°C° 0 mm 7 mps 762 mmHg 45%
    15:00 +33°C° 0 mm 7 mps 762 mmHg 50%
    16:00 +30°C° 0 mm 7 mps 762 mmHg 56%
    17:00 +29°C° 0 mm 7 mps 762 mmHg 61%
    18:00 +28°C° 0 mm 6 mps 762 mmHg 72%
    19:00 +26°C° 0 mm 5 mps 762 mmHg 83%
    20:00 +23°C° 0 mm 5 mps 762 mmHg 94%
    21:00 +23°C° 0 mm 4 mps 762 mmHg 94%
    22:00 +23°C° 0 mm 4 mps 762 mmHg 95%
    23:00 +23°C° 0 mm 4 mps 762 mmHg 95%

    Day after tomorrow, 27 August, Tuesday

    Time Temperature Precipitation Wind Pressure Humidity
    00:00 +23°C° 0 mm 4 mps 762 mmHg 95%
    01:00 +23°C° 0 mm 4 mps 762 mmHg 96%
    02:00 +24°C° 0 mm 3 mps 762 mmHg 96%
    03:00 +22°C° 0 mm 3 mps 762 mmHg 96%
    04:00 +22°C° 0 mm 3 mps 762 mmHg 96%
    05:00 +22°C° 0 mm 3 mps 762 mmHg 96%
    06:00 +24°C° 0 mm 3 mps 762 mmHg 89%
    07:00 +25°C° 0 mm 4 mps 762 mmHg 82%
    08:00 +26°C° 0 mm 4 mps 762 mmHg 76%
    09:00 +28°C° 0 mm 5 mps 762 mmHg 66%
    10:00 +30°C° 0 mm 6 mps 762 mmHg 56%
    11:00 +33°C° 0 mm 6 mps 762 mmHg 46%
    12:00 +33°C° 0 mm 7 mps 762 mmHg 44%
    13:00 +33°C° 0 mm 7 mps 762 mmHg 42%
    14:00 +33°C° 0 mm 7 mps 762 mmHg 40%
    15:00 +32°C° 0 mm 7 mps 762 mmHg 47%
    16:00 +30°C° 0 mm 7 mps 762 mmHg 54%
    17:00 +29°C° 0 mm 6 mps 762 mmHg 61%
    18:00 +27°C° 0 mm 6 mps 762 mmHg 70%
    19:00 +25°C° 0 mm 5 mps 762 mmHg 80%
    20:00 +23°C° 0 mm 5 mps 762 mmHg 90%
    21:00 +22°C° 0 mm 4 mps 763 mmHg 90%
    22:00 +22°C° 0 mm 4 mps 763 mmHg 91%
    23:00 +22°C° 0 mm 4 mps 763 mmHg 91%

    28 August, Wednesday

    Time Temperature Precipitation Wind Pressure Humidity
    00:00 +21°C° 0 mm 4 mps 763 mmHg 90%
    01:00 +21°C° 0 mm 4 mps 762 mmHg 90%
    02:00 +21°C° 0 mm 4 mps 762 mmHg 89%
    03:00 +21°C° 0 mm 4 mps 762 mmHg 89%
    04:00 +20°C° 0 mm 4 mps 762 mmHg 88%
    05:00 +20°C° 0 mm 4 mps 762 mmHg 88%
    06:00 +22°C° 0 mm 5 mps 762 mmHg 80%
    07:00 +23°C° 0 mm 5 mps 762 mmHg 72%
    08:00 +26°C° 0 mm 6 mps 762 mmHg 64%
    09:00 +27°C° 0 mm 7 mps 762 mmHg 58%
    10:00 +29°C° 0 mm 7 mps 762 mmHg 52%
    11:00 +31°C° 0 mm 8 mps 762 mmHg 45%
    12:00 +31°C° 0 mm 8 mps 762 mmHg 43%
    13:00 +31°C° 0 mm 8 mps 761 mmHg 41%
    14:00 +30°C° 0 mm 7 mps 761 mmHg 39%
    15:00 +29°C° 0 mm 7 mps 761 mmHg 45%
    16:00 +28°C° 0 mm 7 mps 761 mmHg 51%
    17:00 +28°C° 0 mm 7 mps 761 mmHg 58%
    18:00 +26°C° 0 mm 6 mps 761 mmHg 67%
    19:00 +23°C° 0 mm 6 mps 761 mmHg 76%
    20:00 +22°C° 0 mm 5 mps 762 mmHg 85%
    21:00 +21°C° 0 mm 4 mps 762 mmHg 86%
    22:00 +21°C° 0 mm 4 mps 762 mmHg 87%
    23:00 +21°C° 0 mm 4 mps 762 mmHg 87%

    29 August, Thursday

    Time Temperature Precipitation Wind Pressure Humidity
    00:00 +20°C° 0 mm 3 mps 761 mmHg 88%
    01:00 +20°C° 0 mm 3 mps 761 mmHg 89%
    02:00 +19°C° 0 mm 3 mps 761 mmHg 89%
    03:00 +19°C° 0 mm 3 mps 761 mmHg 89%
    04:00 +19°C° 0 mm 3 mps 761 mmHg 90%
    05:00 +18°C° 0 mm 4 mps 761 mmHg 90%
    06:00 +20°C° 0 mm 4 mps 761 mmHg 83%
    07:00 +22°C° 0 mm 5 mps 761 mmHg 75%
    08:00 +23°C° 0 mm 5 mps 761 mmHg 68%
    09:00 +26°C° 0 mm 5 mps 761 mmHg 62%
    10:00 +27°C° 0 mm 6 mps 761 mmHg 56%
    11:00 +29°C° 0 mm 6 mps 761 mmHg 50%
    12:00 +29°C° 0 mm 6 mps 761 mmHg 48%
    13:00 +30°C° 0 mm 6 mps 761 mmHg 46%
    14:00 +30°C° 0 mm 6 mps 760 mmHg 45%
    15:00 +29°C° 0 mm 6 mps 760 mmHg 46%
    16:00 +29°C° 0 mm 5 mps 760 mmHg 48%
    17:00 +28°C° 0 mm 5 mps 760 mmHg 50%
    18:00 +26°C° 0 mm 5 mps 760 mmHg 61%
    19:00 +23°C° 0 mm 4 mps 760 mmHg 73%
    20:00 +22°C° 0 mm 4 mps 761 mmHg 85%
    21:00 +21°C° 0 mm 4 mps 761 mmHg 86%
    22:00 +21°C° 0 mm 3 mps 761 mmHg 88%
    23:00 +21°C° 0 mm 3 mps 761 mmHg 89%

    30 August, Friday

    Time Temperature Precipitation Wind Pressure Humidity
    00:00 +21°C° 0 mm 3 mps 761 mmHg 89%
    01:00 +20°C° 0 mm 3 mps 761 mmHg 90%
    02:00 +20°C° 0 mm 4 mps 761 mmHg 90%
    03:00 +20°C° 0.1 mm 4 mps 761 mmHg 90%
    04:00 +20°C° 0.1 mm 4 mps 761 mmHg 90%
    05:00 +19°C° 0.1 mm 4 mps 761 mmHg 90%
    06:00 +21°C° 0 mm 5 mps 761 mmHg 82%
    07:00 +22°C° 0 mm 6 mps 761 mmHg 74%
    08:00 +23°C° 0 mm 7 mps 761 mmHg 66%
    09:00 +24°C° 0 mm 7 mps 761 mmHg 59%
    10:00 +26°C° 0 mm 7 mps 762 mmHg 51%
    11:00 +27°C° 0 mm 8 mps 762 mmHg 44%
    12:00 +27°C° 0 mm 8 mps 762 mmHg 44%
    13:00 +27°C° 0 mm 8 mps 761 mmHg 44%
    14:00 +27°C° 0 mm 7 mps 761 mmHg 44%
    15:00 +26°C° 0 mm 7 mps 761 mmHg 48%
    16:00 +26°C° 0 mm 7 mps 761 mmHg 52%
    17:00 +24°C° 0 mm 8 mps 761 mmHg 57%
    18:00 +22°C° 0 mm 7 mps 761 mmHg 65%
    19:00 +21°C° 0 mm 6 mps 762 mmHg 74%
    20:00 +20°C° 0 mm 5 mps 762 mmHg 82%
    21:00 +19°C° 0 mm 5 mps 762 mmHg 83%
    22:00 +19°C° 0 mm 5 mps 762 mmHg 83%
    23:00 +18°C° 0 mm 4 mps 762 mmHg 84%
    Show more